Retour au catalogue

DELTA 1 DEB

ActifLEO
NORAD 7175·DEBRIS·🇺🇸 United States

Lancé Nov 6, 1973 depuis Vandenberg Space Force Base

Loading…

Prochains Passages (prochaines 24 heures)

TLE

FraisSource: Space-Track

Époque: Sep 12, 2026, 13:17 UTC

1 07175U 73086EM  26255.55352779  .00000145  00000-0  66112-3 0  9996
2 07175 102.5902 126.2027 0196311  43.9467  23.6426 12.94235141480259

Suivez DELTA 1 DEB en temps réel avec AllMySat

Download on the App Store